[[{"header":{"parameterUnit":"m.s-1","parameterCategory":1,"la1":30.2991,"la2":30.254,"lo1":-89.0895,"lo2":-89.0444,"dy":0.0017,"dx":0.0017,"nx":28,"ny":28,"refTime":"2023-09-14T03:00:00:Z","depth":0,"parameterNumber":2,"parameterNumberName":"U-component_of_WINDS"},"data":[0,0,0,0,0,0,0,0,0,0,0,0,0,0,0,0,0,0,0,0,0,0,0,0,0,0,0,0,0,0,0,0,0,0,0,0,0,0,0,0,0,0,0,0,0,0,0,0,0,0,0,0,0,0,0,0,0,0,-2.4885,-2.4885,0,-2.488,-2.488,-2.488,-2.4805,-2.4803,-2.4802,-2.48,-2.4795,-2.4797,-2.4798,0,0,0,0,0,0,0,0,0,0,0,0,0,-2.483,-2.4832,-2.4885,-2.4885,-2.4885,-2.488,-2.488,-2.488,-2.4806,-2.4803,-2.4801,-2.4799,-2.4795,-2.4797,-2.4799,0,0,0,0,0,0,0,0,0,0,0,0,0,-2.4843,-2.4832,-2.4885,-2.4847,-2.4844,-2.488,-2.488,-2.488,-2.4806,-2.4803,-2.48,-2.4798,-2.4794,-2.4796,-2.4799,-2.4871,0,0,-2.4806,-2.4808,0,0,0,0,0,0,0,0,-2.4842,-2.4845,-2.4853,-2.485,-2.4846,-2.484,-2.4859,-2.4877,-2.4807,-2.482,-2.48,-2.4796,-2.4813,-2.4813,-2.4819,-2.4871,-2.4871,-2.4807,-2.4808,-2.4809,-2.481,0,0,0,0,0,0,0,-2.4841,-2.4845,-2.4883,-2.4853,-2.4849,-2.4831,-2.4829,-2.4862,-2.4833,-2.4819,-2.4814,-2.4814,-2.481,-2.4817,-2.4818,-2.4871,-2.4807,-2.4809,-2.481,-2.4811,-2.4981,-2.4984,0,0,0,0,0,0,-2.4846,-2.4844,-2.4883,-2.4883,-2.4837,-2.4834,-2.4832,-2.4845,-2.4832,-2.4827,-2.4816,-2.4811,-2.4814,-2.4815,-2.4818,-2.4901,-2.4809,-2.4812,-2.4813,-2.4978,-2.4982,-2.4985,0,0,0,0,0,0,-2.4845,-2.485,-2.4883,-2.4862,-2.4865,-2.4838,-2.4853,-2.4846,-2.4853,-2.483,-2.4824,-2.4828,-2.4811,-2.4814,-2.4858,-2.49,-2.4813,-2.4815,-2.4975,-2.498,-2.4984,-2.5069,0,0,0,0,0,0,-2.4844,-2.485,-2.4877,-2.4863,-2.4866,-2.4924,-2.4855,-2.4848,-2.4857,-2.4849,-2.484,-2.4835,-2.4809,-2.4855,-2.4861,-2.4902,-2.4817,-2.4971,-2.4977,-2.4982,-2.5062,-2.5076,-2.5088,0,0,0,0,0,-2.4842,-2.4902,-2.4879,-2.4884,-2.49,-2.4927,-2.4929,-2.4897,-2.4861,-2.4888,-2.4873,-2.4836,-2.4894,-2.486,-2.4866,-2.4908,-2.4968,-2.4975,-2.4982,-2.5057,-2.5073,-2.5087,0,0,0,0,0,0,-2.4921,-2.4899,-2.4874,-2.4931,-2.4931,-2.4914,-2.4947,-2.4916,-2.4927,-2.4919,-2.488,-2.4879,-2.4929,-2.4923,-2.4885,-2.4977,-2.4925,-2.4933,-2.498,-2.4995,-2.5008,-2.5008,-2.4819,0,0,0,0,0,-2.4945,-2.4969,-2.4948,-2.5001,-2.5002,-2.4975,-2.4986,-2.4962,-2.4961,-2.496,-2.4949,-2.495,-2.4968,-2.4981,-2.4997,-2.5061,-2.5058,-2.5093,-2.5106,-2.5116,-2.5124,-2.5157,-2.5173,-2.5008,-2.5008,-2.5008,0,0,-2.4996,-2.4986,-2.5004,-2.5016,-2.5014,-2.5039,-2.4976,-2.5005,-2.5024,-2.4965,-2.5006,-2.4998,-2.4996,-2.505,-2.5074,-2.5047,-2.5169,-2.5125,-2.5133,-2.5135,-2.5166,-2.5181,-2.5195,-2.5013,-2.5012,-2.5011,0,0,-2.51,-2.5095,-2.5138,-2.5137,-2.5134,-2.5115,-2.5126,-2.5114,-2.5106,-2.5146,-2.5102,-2.5124,-2.5157,-2.5157,-2.5162,-2.5266,-2.5232,-2.5272,-2.5338,-2.5371,-2.5384,-2.5395,-2.5433,-2.5447,-2.528,-2.528,-2.528,0,-2.5163,-2.5199,-2.5164,-2.5197,-2.5204,-2.5151,-2.5194,-2.5195,-2.5198,-2.5204,-2.5173,-2.5213,-2.5208,-2.5262,-2.5287,-2.5293,-2.5303,-2.5273,-2.5385,-2.5396,-2.5406,-2.5441,-2.5455,-2.5285,-2.5285,-2.5284,-2.5284,0,-2.5277,-2.5303,-2.5338,-2.5341,-2.5352,-2.539,-2.5361,-2.5376,-2.5351,-2.5335,-2.5377,-2.5369,-2.5383,-2.5393,-2.5369,-2.5444,-2.5427,-2.5392,-2.5338,-2.5427,-2.546,-2.5473,-2.5292,-2.529,-2.5289,-2.5288,0,0,-2.5431,-2.5415,-2.5428,-2.5429,-2.5422,-2.5441,-2.5477,-2.5489,-2.5503,-2.5506,-2.5535,-2.5564,-2.5531,-2.5536,-2.5511,-2.554,-2.5624,-2.5501,-2.55,-2.5524,-2.5705,-2.5732,-2.5749,-2.5601,-2.5603,-2.5605,-2.5706,0,-2.5532,-2.5591,-2.5561,-2.5624,-2.5648,-2.5598,-2.5629,-2.5628,-2.5614,-2.5632,-2.5617,-2.5639,-2.5593,-2.5596,-2.5622,-2.5608,-2.566,-2.56,-2.5628,-2.5629,-2.563,-2.5765,-2.5794,-2.5889,-2.5718,-2.572,-2.5722,0,-2.5658,-2.5666,-2.5732,-2.572,-2.5729,-2.5757,-2.5766,-2.5784,-2.5782,-2.577,-2.5776,-2.5744,-2.5778,-2.5725,-2.5771,-2.5731,-2.5741,-2.5735,-2.5738,-2.574,-2.5681,-2.5771,-2.5919,-2.5933,-2.5741,-2.574,-2.5738,0,-2.5764,-2.5792,-2.5835,-2.5837,-2.5824,-2.5845,-2.5841,-2.5836,-2.5845,-2.5853,-2.5859,-2.5871,-2.5878,-2.5888,-2.586,-2.5824,-2.591,-2.5855,-2.5902,-2.5903,-2.5922,-2.5922,-2.6074,-2.5928,-2.5928,-2.5928,-2.5928,0,-2.588,-2.5923,-2.5882,-2.5909,-2.5955,-2.5919,-2.5965,-2.5956,-2.5951,-2.5975,-2.5933,-2.5956,-2.5918,-2.5938,-2.5917,-2.5958,-2.5961,-2.5953,-2.5947,-2.5957,-2.5958,-2.5963,-2.5956,-2.5932,-2.5931,-2.593,-2.5929,0,-2.6007,-2.5982,-2.6025,-2.6009,-2.6006,-2.6041,-2.6027,-2.6051,-2.6034,-2.6065,-2.607,-2.6044,-2.6065,-2.6039,-2.6057,-2.6043,-2.61,-2.6083,-2.61,-2.6096,-2.6144,-2.614,-2.6305,-2.6325,-2.6167,-2.6168,-2.617,0,-2.6083,-2.6114,-2.6101,-2.6114,-2.6112,-2.6133,-2.6142,-2.6108,-2.612,-2.612,-2.6144,-2.6161,-2.6172,-2.6208,-2.6191,-2.6205,-2.6189,-2.6246,-2.6191,-2.62,-2.619,-2.6189,-2.6192,-2.6257,-2.6259,-2.6261,-2.6262,0,-2.622,-2.6206,-2.6221,-2.6232,-2.6244,-2.6251,-2.6255,-2.6268,-2.6232,-2.6247,-2.6268,-2.6277,-2.6295,-2.6313,-2.6322,-2.6318,-2.6285,-2.6279,-2.6291,-2.6302,-2.631,-2.6307,-2.6131,-2.6276,-2.6275,-2.6274,-2.6273,-2.6272,-2.6324,-2.6349,-2.6344,-2.6362,-2.6361,-2.6366,-2.6387,-2.6373,-2.639,-2.6402,-2.6381,-2.6407,-2.6403,-2.6412,-2.6411,-2.6431,-2.6407,-2.6424,-2.6428,-2.6433,-2.644,-2.6307,-2.6433,-2.6433,-2.6432,-2.6432,-2.6431,0,-2.6459,-2.6453,-2.647,-2.6477,-2.6491,-2.6457,-2.646,-2.6474,-2.6497,-2.6497,-2.6509,-2.6533,-2.655,-2.6534,-2.6548,-2.6567,-2.6552,-2.6571,-2.657,-2.6569,-2.6461,-2.645,-2.6583,-2.6583,-2.6583,-2.6583,-2.6583,-2.6583,-2.6531,-2.6572,-2.6558,-2.6598,-2.6591,-2.6616,-2.6621,-2.6624,-2.6624,-2.6652,-2.6665,-2.6655,-2.6648,-2.6661,-2.6675,-2.667,-2.6677,-2.6703,-2.6692,-2.6592,-2.6577,-2.6563,-2.6552,-2.6704,-2.6705,-2.6798,-2.6799,-2.68]},{"header":{"parameterUnit":"m.s-1","parameterCategory":1,"la1":30.2991,"la2":30.254,"lo1":-89.0895,"lo2":-89.0444,"dy":0.0017,"dx":0.0017,"nx":28,"ny":28,"refTime":"2023-09-14T03:00:00:Z","depth":0,"parameterNumber":3,"parameterNumberName":"V-component_of_WINDS"},"data":[0,0,0,0,0,0,0,0,0,0,0,0,0,0,0,0,0,0,0,0,0,0,0,0,0,0,0,0,0,0,0,0,0,0,0,0,0,0,0,0,0,0,0,0,0,0,0,0,0,0,0,0,0,0,0,0,0,0,-1.1377,-1.1377,0,-1.1355,-1.1354,-1.1354,-1.1338,-1.1338,-1.1338,-1.1338,-1.1314,-1.1313,-1.1313,0,0,0,0,0,0,0,0,0,0,0,0,0,-1.1406,-1.1406,-1.1377,-1.1377,-1.1377,-1.1355,-1.1354,-1.1354,-1.1338,-1.1338,-1.1338,-1.1338,-1.1314,-1.1314,-1.1313,0,0,0,0,0,0,0,0,0,0,0,0,0,-1.1389,-1.1405,-1.1378,-1.1366,-1.1365,-1.1355,-1.1354,-1.1354,-1.1338,-1.1338,-1.1338,-1.1338,-1.1314,-1.1314,-1.1313,-1.1312,0,0,-1.131,-1.131,0,0,0,0,0,0,0,0,-1.139,-1.1388,-1.1368,-1.1367,-1.1366,-1.1349,-1.1356,-1.134,-1.1338,-1.1348,-1.1338,-1.1338,-1.1326,-1.1324,-1.132,-1.1311,-1.1309,-1.131,-1.131,-1.131,-1.1309,0,0,0,0,0,0,0,-1.1392,-1.1389,-1.1368,-1.1368,-1.1366,-1.1362,-1.1359,-1.1353,-1.1338,-1.1347,-1.1346,-1.1344,-1.1325,-1.1321,-1.1319,-1.1309,-1.131,-1.131,-1.1309,-1.1309,-1.1296,-1.1296,0,0,0,0,0,0,-1.1395,-1.139,-1.1369,-1.1368,-1.1378,-1.1362,-1.1359,-1.1355,-1.1338,-1.1336,-1.1344,-1.1343,-1.1322,-1.132,-1.1319,-1.1315,-1.131,-1.1309,-1.1308,-1.1296,-1.1296,-1.1296,0,0,0,0,0,0,-1.1395,-1.1393,-1.137,-1.1379,-1.1375,-1.1361,-1.1357,-1.1354,-1.135,-1.1336,-1.1333,-1.1342,-1.1322,-1.132,-1.1313,-1.1314,-1.1308,-1.1308,-1.1296,-1.1296,-1.1296,-1.131,0,0,0,0,0,0,-1.1396,-1.1393,-1.1393,-1.1379,-1.1375,-1.1366,-1.1357,-1.1354,-1.1349,-1.1348,-1.1334,-1.1331,-1.1322,-1.1314,-1.1312,-1.1313,-1.1307,-1.1295,-1.1296,-1.1296,-1.1309,-1.131,-1.1311,0,0,0,0,0,-1.1397,-1.1398,-1.1393,-1.1391,-1.1375,-1.1366,-1.1364,-1.1353,-1.1349,-1.1348,-1.1339,-1.1332,-1.1314,-1.1314,-1.1311,-1.1312,-1.1295,-1.1296,-1.1296,-1.1308,-1.131,-1.1311,0,0,0,0,0,0,-1.1413,-1.1396,-1.139,-1.1387,-1.1378,-1.1363,-1.1362,-1.1355,-1.1347,-1.1346,-1.1333,-1.133,-1.1324,-1.1317,-1.1317,-1.1309,-1.1304,-1.1304,-1.1314,-1.1316,-1.1317,-1.1319,-1.1306,0,0,0,0,0,-1.1416,-1.1411,-1.1396,-1.1394,-1.139,-1.1377,-1.1372,-1.1365,-1.1355,-1.1351,-1.1341,-1.1332,-1.1324,-1.1319,-1.1312,-1.1308,-1.1304,-1.1307,-1.1308,-1.1309,-1.1309,-1.1305,-1.1306,-1.1297,-1.1297,-1.1297,0,0,-1.1422,-1.1412,-1.141,-1.1397,-1.1389,-1.1383,-1.1374,-1.1368,-1.1363,-1.135,-1.1343,-1.1336,-1.1324,-1.1319,-1.1316,-1.1313,-1.131,-1.1309,-1.131,-1.1309,-1.1305,-1.1306,-1.1307,-1.1297,-1.1297,-1.1297,0,0,-1.1431,-1.1423,-1.142,-1.1412,-1.14,-1.1391,-1.139,-1.1376,-1.1371,-1.1364,-1.1353,-1.1347,-1.1335,-1.1326,-1.1321,-1.1324,-1.1317,-1.1322,-1.1328,-1.1325,-1.1325,-1.1326,-1.1327,-1.1327,-1.1322,-1.1322,-1.1322,0,-1.144,-1.1431,-1.1419,-1.1414,-1.1408,-1.1396,-1.1392,-1.1385,-1.1371,-1.1367,-1.1364,-1.1347,-1.1338,-1.133,-1.1331,-1.1327,-1.1325,-1.1324,-1.1326,-1.1327,-1.1327,-1.1327,-1.1328,-1.1323,-1.1323,-1.1323,-1.1322,0,-1.1443,-1.1437,-1.1436,-1.1422,-1.1416,-1.1412,-1.1399,-1.1394,-1.1386,-1.1378,-1.137,-1.1359,-1.1348,-1.1345,-1.1338,-1.1336,-1.1334,-1.1329,-1.1323,-1.1329,-1.1329,-1.1329,-1.1324,-1.1323,-1.1323,-1.1323,0,0,-1.1462,-1.1441,-1.1441,-1.1434,-1.1419,-1.1414,-1.1408,-1.1398,-1.1394,-1.1384,-1.1379,-1.1367,-1.1362,-1.1355,-1.1347,-1.1344,-1.1346,-1.1338,-1.1338,-1.134,-1.1342,-1.1346,-1.1347,-1.1341,-1.1341,-1.1341,-1.1343,0,-1.1468,-1.1458,-1.1446,-1.144,-1.1434,-1.1421,-1.1416,-1.1406,-1.1397,-1.139,-1.138,-1.1372,-1.1365,-1.1361,-1.1357,-1.1347,-1.1346,-1.1346,-1.1335,-1.1335,-1.1339,-1.1347,-1.1352,-1.1354,-1.1343,-1.1343,-1.1343,0,-1.1474,-1.1465,-1.1458,-1.1442,-1.1439,-1.1435,-1.1424,-1.1417,-1.1405,-1.1399,-1.1391,-1.1381,-1.1374,-1.1369,-1.1358,-1.1358,-1.1352,-1.1346,-1.1346,-1.1345,-1.134,-1.1346,-1.1355,-1.1355,-1.1343,-1.1343,-1.1343,0,-1.1488,-1.1474,-1.1467,-1.1462,-1.1444,-1.1441,-1.1434,-1.1421,-1.1415,-1.1405,-1.1401,-1.139,-1.1384,-1.1375,-1.1363,-1.136,-1.1353,-1.1347,-1.1347,-1.1347,-1.1347,-1.1347,-1.1355,-1.1343,-1.1343,-1.1343,-1.1343,0,-1.1496,-1.1492,-1.1473,-1.147,-1.1464,-1.1451,-1.1446,-1.1437,-1.1426,-1.1419,-1.1407,-1.1401,-1.1385,-1.1377,-1.1367,-1.1359,-1.1357,-1.1351,-1.1348,-1.1352,-1.1353,-1.1349,-1.1348,-1.1343,-1.1343,-1.1343,-1.1343,0,-1.1511,-1.1499,-1.1491,-1.1474,-1.147,-1.1467,-1.1452,-1.1447,-1.1437,-1.1429,-1.1426,-1.1411,-1.14,-1.1387,-1.1372,-1.1366,-1.1359,-1.1355,-1.1363,-1.1361,-1.1362,-1.1362,-1.1368,-1.1368,-1.1356,-1.1356,-1.1357,0,-1.1518,-1.1514,-1.1497,-1.1492,-1.1484,-1.1476,-1.147,-1.1455,-1.1449,-1.1434,-1.1431,-1.142,-1.141,-1.1394,-1.1381,-1.1369,-1.1365,-1.1368,-1.1363,-1.1367,-1.1365,-1.1365,-1.1364,-1.1369,-1.1369,-1.1369,-1.1369,0,-1.153,-1.1523,-1.1515,-1.1503,-1.1496,-1.1486,-1.1476,-1.1472,-1.1455,-1.1449,-1.1438,-1.143,-1.1415,-1.1404,-1.139,-1.1381,-1.1372,-1.1371,-1.137,-1.1374,-1.1379,-1.1376,-1.1366,-1.1371,-1.1371,-1.1371,-1.1371,-1.137,-1.1541,-1.1537,-1.1523,-1.1514,-1.1504,-1.1495,-1.1489,-1.1478,-1.1469,-1.1455,-1.1447,-1.1437,-1.1423,-1.1404,-1.1395,-1.1386,-1.1383,-1.1382,-1.1382,-1.1382,-1.1383,-1.138,-1.1384,-1.1384,-1.1384,-1.1384,-1.1383,0,-1.1552,-1.1542,-1.1534,-1.1519,-1.1511,-1.1503,-1.1491,-1.1485,-1.1476,-1.1464,-1.1454,-1.1441,-1.1429,-1.1415,-1.1402,-1.1398,-1.1393,-1.1395,-1.1395,-1.1393,-1.1387,-1.1389,-1.1399,-1.1399,-1.1399,-1.1399,-1.1399,-1.1399,-1.1557,-1.1549,-1.1541,-1.1528,-1.1519,-1.1508,-1.1502,-1.1492,-1.1483,-1.1469,-1.1459,-1.145,-1.1436,-1.1422,-1.1411,-1.1407,-1.1403,-1.1406,-1.14,-1.1395,-1.1394,-1.1392,-1.1394,-1.1405,-1.1405,-1.1407,-1.1407,-1.1407]}]]